Погода в Андижане

Узбекистан     40˚47′00″N   72˚21′02″E
темп.,
°C
ветер,
м/с
пор.,
м/с
влажн.,
%
обл.,
%
осадки,
мм/ч
давл.,
гПа
погр.,
м
6 декабря, вс
вс623:00+4˚с1160100 0.0 103258
02:00+3˚юз0162100 0.0 103255
05:00+3˚юв1164100 0.0 103396
08:00+2˚юв1164100 0.0 103473
11:00+5˚св115286 0.0 1031456
14:00+7˚зсз004229 0.0 1029701
17:00+6˚св114237 0.0 1031403
20:00+4˚в2352100 0.0 1031135
7 декабря, пн
пн723:00+3˚в225799 0.0 103096
02:00+2˚всв1157100 0.0 102954
05:00+2˚всв1256100 0.0 102780
08:00+2˚в1156100 0.0 102667
11:00+4˚всв0149100 0.1 1025303
14:00+6˚всв0143100 0.0 1025503
17:00+5˚ссз1145100 0.0 1026282
20:00+5˚зюз1150100 0.0 102865
8 декабря, вт
вт823:00+4˚з2356100 0.0 1028200
02:00+2˚ююз1282100 0.1 1029184
05:00+1˚ссз0193100 0.3 1029111
08:00+2˚св1293100 0.3 1030145
11:00+2˚ссв1180100 0.4 1028340
14:00+4˚ююз1171100 0.0 1027507
17:00+3˚ююв1183100 0.1 1029238
20:00+3˚юв1289100 0.1 1032182
9 декабря, ср
ср923:00+2˚вюв1186100 0.1 1032225
02:00+2˚зсз1186100 0.0 1033279
05:00+2˚с1288100 0.1 1033259
08:00+2˚ссв118399 0.0 1034230
11:00+4˚сз116890 0.0 1031564
14:00+5˚ю106057 0.0 1029725
17:00+5˚юв116434 0.0 1030506
20:00+3˚в23721 0.0 1030124
10 декабря, чт
чт1023:00+2˚всв22760 0.0 103095
02:00+1˚в12770 0.0 103055
05:00+1˚в12760 0.0 103031
08:00+1˚в127338 0.0 103143
11:00+4˚св115652 0.0 1029359
14:00+6˚зюз014978 0.0 1028590
17:00+5˚св115588 0.0 103028
20:00+3˚в126017 0.0 103258